Regional Weather Roundup
Issued by NWS Midland/Odessa, TX

Skip options and go directly to product.
Home | Oldest Version | Previous Version | Current Version | All | Text Only | Save Text | Print | Product List | Glossary On

Skip product version selection by date and time.   
047
ASUS44 KMAF 291801
RWRMAF
MIDLAND AREA WEATHER ROUNDUP
NATIONAL WEATHER SERVICE MIDLAND TX
100 PM CDT MON AUG 29 2016

...IN SOUTHWEST TEXAS AND SOUTHEAST NEW MEXICO...

CITY           SKY/WX    TMP DP  RH WIND       PRES   REMARKS
ALPINE         CLOUDY    71  59  64 E9        30.28F
ANDREWS        NOT AVBL
ARTESIA        MOSUNNY   77  61  57 VRB6G13   30.21F
BIG SPRING     MOSUNNY   81  65  57 NE10G18   30.15F
CARLSBAD       MOSUNNY   77  59  53 N10       30.18F
DRYDEN           N/A     78  69  73 CALM      30.09F
FORT STOCKTON  CLOUDY    76  63  64 VRB3      30.16F
GUAD PASS      MOSUNNY   72  57  59 E20G28    30.29F
HOBBS          PTSUNNY   72  72 100 NE8       30.22F
MARFA          CLOUDY   N/A N/A N/A NE16      30.24F
MIDLAND AIRPK  PTSUNNY   83  67  58 E14       30.14F
MIDLAND INTL   MOSUNNY   82  67  60 SE12      30.13F
ODESSA         CLOUDY    78  66  66 SE13      30.14F
PECOS          CLOUDY    73  62  67 CALM      30.16F
PRESIDIO       FAIR      79  63  58 NE7       30.11
SEMINOLE       CLOUDY    70  66  87 CALM      30.20F
SNYDER           N/A     82  65  56 NE12      30.15F
WINK           CLOUDY    74  65  73 CALM      30.15F
$$
...OTHER STATIONS IN TEXAS...

CITY           SKY/WX    TMP DP  RH WIND       PRES   REMARKS
ABILENE        MOSUNNY   83  67  58 E13       30.13F
AMARILLO       PTSUNNY   75  62  64 SE6       30.23F
AUSTIN         CLOUDY    86  75  69 N10       30.01F
BROWNSVILLE    MOSUNNY   96  71  44 N13G20    29.89F HX 103
CORPUS CHRISTI CLOUDY    83  75  77 N12       29.94F
DALLAS FTW     PTSUNNY   90  71  53 NE7       30.06F
DEL RIO        CLOUDY    85  71  63 VRB3      30.00F
EL PASO        MOSUNNY   79  61  53 E9        30.17F
HOUSTON INT    CLOUDY    81  76  84 E8        29.99S
LUBBOCK        PTSUNNY   80  64  58 NE7       30.19F
SAN ANGELO     MOSUNNY   84  67  56 NE15G21   30.10F
SAN ANTONIO    CLOUDY    80  74  81 E7        30.03F
WACO           PTSUNNY   88  73  61 NE10      30.04F
WICHITA FALLS  NOT AVBL
$$
...OTHER LOCATIONS IN NEW MEXICO...

CITY           SKY/WX    TMP DP  RH WIND       PRES   REMARKS
ALAMAGORDO     SUNNY     79  55  44 S9        30.21F
ALBUQUERQUE    MOSUNNY   77  48  35 SE15G21   30.28F
CANNON AFB     CLOUDY    68  64  87 NE12      30.27S
CLOVIS         CLOUDY    70  61  73 N13       30.27F
HOLLOMAN AFB   SUNNY     80  56  43 S7        30.18F
ROSWELL        PTSUNNY   78  56  46 E7        30.21F
RUIDOSO          N/A     66  54  63 E5        30.39F
SANTA FE       SUNNY     72  44  36 VRB7      30.34F
TRUTH OR CONSE SUNNY     80  48  32 NE6       30.22F
TUCUMCARI      LGT RAIN  74  59  59 N7        30.26F
$$

USA.gov is the U.S. government's official web portal to all federal, state and local government web resources and services.